This is the latest recevied weather packets stored in our database for station/object DH5DY-6. If no packets are shown the sender has not sent any weather packets the latest 10 day(s).
| Time | Temp. | Humidity | Pressure | Rain* | Wind** | Luminosity | Snow |
|---|---|---|---|---|---|---|---|
| 1787374833 | 12.22° C | 94% | 1013.1 hPa | 0.76 mm | - | 26 W/m² | - |
| 1787374233 | 12.22° C | 94% | 1012.9 hPa | 1.02 mm | - | 16 W/m² | - |
| 1787373634 | 12.22° C | 94% | 1012.9 hPa | 1.52 mm | - | 7 W/m² | - |
| 1787373033 | 12.22° C | 94% | 1012.7 hPa | 2.29 mm | - | 0 W/m² | - |
| 1787372434 | 12.22° C | 94% | 1012.7 hPa | 3.05 mm | - | 0 W/m² | - |
| 1787371833 | 12.22° C | 94% | 1012.7 hPa | 3.56 mm | - | 0 W/m² | - |
| 1787371233 | 12.22° C | 94% | 1012.7 hPa | 4.06 mm | - | 0 W/m² | - |
| 1787370634 | 12.22° C | 94% | 1012.7 hPa | 4.06 mm | - | 0 W/m² | - |
| 1787370033 | 12.22° C | 94% | 1012.7 hPa | 3.3 mm | - | 0 W/m² | - |
| 1787369433 | 12.22° C | 93% | 1012.6 hPa | 3.3 mm | - | 0 W/m² | - |
| 1787368833 | 12.22° C | 93% | 1012.4 hPa | 2.29 mm | - | 0 W/m² | - |
| 1787367633 | 12.22° C | 93% | 1012.1 hPa | 1.52 mm | - | 0 W/m² | - |
| 1787367033 | 12.22° C | 93% | 1012.1 hPa | 1.78 mm | - | 0 W/m² | - |
| 1787366433 | 12.22° C | 93% | 1011.8 hPa | 2.03 mm | - | 0 W/m² | - |
| 1787365833 | 12.22° C | 94% | 1011.6 hPa | 2.29 mm | - | 0 W/m² | - |
| 1787365232 | 12.22° C | 93% | 1011.5 hPa | 2.29 mm | - | 0 W/m² | - |
| 1787364632 | 12.22° C | 93% | 1011.5 hPa | 2.29 mm | - | 0 W/m² | - |
| 1787364033 | 12.22° C | 93% | 1011.5 hPa | 2.54 mm | - | 0 W/m² | - |
| 1787363433 | 12.22° C | 93% | 1011.5 hPa | 2.29 mm | - | 0 W/m² | - |
| 1787362833 | 12.78° C | 93% | 1011.5 hPa | 2.03 mm | - | 0 W/m² | - |
| 1787362232 | 12.78° C | 93% | 1011.5 hPa | 1.52 mm | - | 0 W/m² | - |
| 1787361632 | 12.78° C | 93% | 1011.5 hPa | 1.02 mm | - | 0 W/m² | - |
| 1787361033 | 12.78° C | 93% | 1011.5 hPa | 0.51 mm | - | 0 W/m² | - |
| 1787360432 | 12.78° C | 93% | 1011.5 hPa | 0.25 mm | - | 0 W/m² | - |
| 1787359831 | 12.78° C | 93% | 1011.4 hPa | 0.25 mm | - | 0 W/m² | - |
* Rain latest hour (hover to see other rain measurements)
** Current wind speed in m/s (hover to see current wind gust speed)